English version Home page |
Updated on September 27, 2024 |
|
軌道要素Epoch 2024 Mar. 31.0 TT = JDT 2460400.5 T 2023 Nov. 15.37720 TT Rudenko q 10.3130120 (2000.0) P Q z +0.0001528 Peri. 280.70469 +0.15957301 +0.96235497 +/-0.0000003 Node 347.22551 +0.26392861 -0.25635352 e 0.9984244 Incl. 84.30066 -0.95125083 +0.09030936 >From 750 observations 2013 Apr. 1-2024 Feb. 16, mean residual 0".5.
|
星図
|
光度変化m1 = 1.5 + 5 logΔ + 10.0 log r
|
軌道要素はM.P.E.C. 2024-D126に掲載されたものです。
|